Regional Weather Roundup
Issued by NWS Sterling, VA

Home | Current Version | Previous Version | Text Only | Print | Product List | Glossary Off
Versions: 1 2 3 4 5 6 7 8 9 10 11 12 13 14 15 16 17 18 19 20 21 22 23 24 25 26 27 28 29 30 31 32 33 34 35 36 37 38 39 40 41 42 43 44 45 46 47 48 49 50

000
ASUS41 KLWX 271210
RWRLWX

REGIONAL WEATHER ROUNDUP
NATIONAL WEATHER SERVICE BALTIMORE MD/WASHINGTON DC
700 AM EST SAT DEC 27 2014

Note: "FAIR" indicates few or no clouds below 12,000 feet
with no significant weather and/or obstructions to visibility.
 TC=TEMPERATURE CELSIUS

 * =Non NWS site. Station does not report precipitation (e.g. rain,
    snow, etc.), thunder, or fog.

DCZ001-MDZ009-015-VAZ040>042-051-053>054-271300-
WASHINGTON METRO

CITY           SKY/WX    TMP DP  RH WIND       PRES   REMARKS
WASHINGTON NAT MOCLDY    39  33  79 SE3       30.26S
DULLES         MOCLDY    30  28  92 CALM      30.25S
ANDREWS AFB    MOCLDY    37  33  87 N2        30.25R
FT BELVOIR     MOCLDY    30  28  93 CALM      30.27S
QUANTICO       MOCLDY    33  30  88 NW6       30.28R
COLLEGE PARK*  MOCLDY    32  32 100 CALM      30.26S
LEESBURG*      PTCLDY    30  30 100 CALM      30.27S
GAITHERSBURG*  PTCLDY    30  28  93 CALM      30.28S

$$

MDZ006>007-011-014-271300-
BALTIMORE METRO

CITY           SKY/WX    TMP DP  RH WIND       PRES   REMARKS
BWI AIRPORT    MOCLDY    32  29  88 CALM      30.26R
MD SCIENCE CTR   N/A     37  32  82 MISG      30.26S
MARTIN STATE   PTCLDY    30  30 100 CALM      30.28R
ANNAPOLIS      CLOUDY    36  34  92 CALM      30.27R
FORT MEADE*    MOCLDY    30  30 100 CALM      30.29R

$$

MDZ012-015-019>023-271300-
MARYLAND EASTERN SHORE

CITY           SKY/WX    TMP DP  RH WIND       PRES   REMARKS
OCEAN CITY     MOCLDY    33  32  96 CALM      30.30R FOG
SALISBURY      MOCLDY    33  30  88 SE3       30.29R FOG
BAY BRIDGE AP*   N/A     36  36 100 CALM      30.28R
CAMBRIDGE*     CLOUDY    36  34  93 SE3       30.28R
EASTON*        CLEAR     36  36 100 CALM      30.31S

$$

MDZ017>025-271300-
SOUTHERN MARYLAND

CITY           SKY/WX    TMP DP  RH WIND       PRES   REMARKS
PATUXENT RIVER MOCLDY    35  31  85 S5        30.27R
ST INIGOES     PTCLDY    34  30  85 CALM      30.28R
LEONARDTOWN*   PTCLDY    37  34  87 CALM      30.29R

$$

MDZ003>005-271300-
NORTH CENTRAL MARYLAND

CITY           SKY/WX    TMP DP  RH WIND       PRES   REMARKS
FREDERICK*     CLEAR     30  27  86 CALM      30.28R
HAGERSTOWN APT PTCLDY    36  29  75 SE3       30.23F
WESTMINSTER*   PTCLDY    36  30  80 CALM      30.24R

$$

MDZ501>502-271300-
WESTERN MARYLAND

CITY           SKY/WX    TMP DP  RH WIND       PRES   REMARKS
OAKLAND*       MOCLDY    37   9  30 W7        30.21R
CUMBERLAND*    MOCLDY    32  32 100 CALM      30.30R

$$

VAZ025>031-271300-
SHENANDOAH VALLEY

CITY           SKY/WX    TMP DP  RH WIND       PRES   REMARKS
WINCHESTER*    PTCLDY    34  28  80 CALM      30.25R
FRONT ROYAL*   FAIR      41  28  60 S5        30.24R
LURAY*         FAIR      36  34  93 S5        30.26R
NEW MARKET*    FAIR      35  32  89 CALM      30.27R
STAUNTON*      CLOUDY    34  29  83 CALM      30.28R
WAYNESBORO*    FAIR      35  28  74 CALM      30.26R

$$

WVZ021-048>050-054>055-271300-
EASTERN WEST VIRGINIA PANHANDLE

CITY           SKY/WX    TMP DP  RH WIND       PRES   REMARKS
MARTINSBURG    PTCLDY    30  25  81 NW3       30.25F
PETERSBURG*    CLOUDY    34  33  94 CALM      30.26R

$$

VAZ036>039-050-271300-
CENTRAL FOOTHILLS

CITY           SKY/WX    TMP DP  RH WIND       PRES   REMARKS
CHARLOTTESVILL MOCLDY    34  30  85 CALM      30.25R
CULPEPER*      MOCLDY    32  30  93 CALM      30.26R
ORANGE*        MOCLDY    32  32 100 CALM      30.27R
GORDONSVILLE*  FAIR      31  30  95 CALM      30.26R
WARRENTON*     FAIR      31  31 100 CALM      30.25R

$$

VAZ055>057-271300-
NORTH AND CENTRAL PIEDMONT

CITY           SKY/WX    TMP DP  RH WIND       PRES   REMARKS
FREDERICKSBRG* PTCLDY    32  32 100 S6        30.26S
STAFFORD*      MOCLDY    30  30 100 CALM      30.30S

$$

NCZ024-NYZ072-PAZ021-071-VAZ022-071-271300-
OTHER REGIONAL OBSERVATIONS

CITY           SKY/WX    TMP DP  RH WIND       PRES   REMARKS
NEW YORK CITY  PTCLDY    45  29  53 W8        30.26R
PHILADELPHIA   MOCLDY    35  31  85 SW3       30.27R
PITTSBURGH     CLOUDY    36  30  79 CALM      30.20S
ROANOKE        PTCLDY    36  28  73 N8        30.29R
RICHMOND       PTCLDY    31  27  85 S5        30.29R
RALEIGH        PTCLDY    32  30  92 CALM      30.31R

$$

ANZ530>537-271300-
MARINE OBSERVATIONS

STATION/POSITION TIME  TEMP    WIND        PRES
                       AIR SEA DIR/SP/G
                 (UTC) (F)     (DEG/KT/KT) (MB)
THOMAS PT LIGHT  1200   40 42   CALM  /  1 1026.3R
BALT KEY BRIDGE  1200   37     320/  1/  2 1024.8R
COVE POINT       1200   42     210/  5/  7 1025.0S
LEWISETTA        1200   41 44     CALM     1025.2R
SOLOMONS ISLAND  1200      43                N/A
PINEY POINT      1200          240/  2/  2   N/A

$$




USA.gov is the U.S. government's official web portal to all federal, state and local government web resources and services.